Tracking 18942 objects as of 18-Jan-2018
HD Live streaming from Space Station
objects crossing your sky now

FENGYUN 1C DEB

Track FENGYUN 1C DEB now!
10-day predictions


NORAD ID: 33689
Int'l Code: 1999-025DGA
Perigee: 757.1 km
Apogee: 842.2 km
Inclination: 99.6 °
Period: 100.7 minutes
Semi major axis: 7170 km
RCS: 0.0143 m2 (small)
Launch date: May 10, 1999
Source: People's Republic of China (PRC)
Launch site: Taiyaun Space Center, China (TSC)

Note: This is SATELLITE DEBRIS
aabbcc
Your satellite tracking list
Your tracking list is empty




NASA's NSSDC Master Catalog

Two Line Element Set (TLE):
1 33689U 99025DGA 18016.34053451  .00000459  00000-0  19528-3 0  9991
2 33689  99.5691  51.5316 0059355 156.7295 269.2181 14.29761322510050
Source of the keplerian elements: AFSPC